DW4589 Weather Reports


Display with metric or nautical units.
time (UTC)temp
F
wind
direction
speed
MPH
gust
MPH
rain 1hr
in
rain 24hr
in
rain mn
in
humidity
%
barometer
mb
20260507072508 39 289 0.0 0.0 0.00 0.06 0.00 90 1014.4
20260507072007 39 289 0.0 0.0 0.00 0.07 0.00 90 1014.5
20260507071522 39 289 0.0 0.0 0.00 0.08 0.00 90 1014.5
20260507071009 39 289 0.0 0.0 0.00 0.10 0.00 90 1014.4
20260507070508 39 289 0.0 0.0 0.00 0.11 0.00 90 1014.3
20260507070013 39 289 0.0 0.0 0.00 0.12 0.00 90 1014.3
20260507065505 39 289 0.0 0.0 0.00 0.13 0.00 90 1014.3
20260507065004 39 289 0.0 0.0 0.00 0.13 0.00 90 1014.4
20260507064512 39 289 0.0 0.0 0.00 0.14 0.00 90 1014.5
20260507064004 40 289 0.0 0.0 0.00 0.14 0.00 90 1014.5
20260507063507 40 289 0.0 0.0 0.00 0.14 0.00 90 1014.5
20260507063023 40 289 0.0 0.0 0.00 0.14 0.00 89 1014.6
20260507062507 40 289 0.0 0.0 0.00 0.14 0.00 89 1014.6
20260507062007 40 289 0.0 0.0 0.00 0.15 0.00 89 1014.5
20260507061518 40 289 0.0 0.0 0.00 0.17 0.00 89 1014.5
20260507061009 40 289 0.0 0.0 0.00 0.18 0.00 89 1014.5
20260507060508 40 289 0.0 0.0 0.00 0.20 0.00 89 1014.6
20260507060027 40 289 0.0 0.0 0.00 0.20 0.00 89 1014.5
20260507055508 41 289 0.0 0.0 0.00 0.21 0.00 89 1014.6
20260507055008 41 289 0.0 0.0 0.00 0.22 0.00 89 1014.6
20260507054510 41 289 0.0 0.0 0.00 0.23 0.00 89 1014.7
20260507054005 41 289 0.0 0.0 0.00 0.24 0.00 89 1014.7
20260507053504 41 289 0.0 0.0 0.00 0.25 0.00 89 1014.6
20260507053014 41 289 0.0 0.0 0.00 0.26 0.00 89 1014.5
20260507052504 41 289 0.0 0.0 0.00 0.28 0.00 89 1014.5
20260507052004 41 289 0.0 0.0 0.00 0.32 0.00 89 1014.6
20260507051520 41 289 0.0 0.0 0.00 0.36 0.00 89 1014.7
20260507051013 41 289 0.0 0.0 0.00 0.37 0.00 89 1014.7
20260507050507 42 289 0.0 0.0 0.00 0.38 0.00 89 1014.8
20260507050028 42 289 0.0 0.0 0.00 0.39 0.00 89 1014.7
20260507045507 42 289 0.0 0.0 0.00 0.41 0.00 88 1014.8
20260507045007 42 289 0.0 0.0 0.00 0.42 0.00 89 1014.8
20260507044526 42 289 0.0 0.0 0.00 0.42 0.00 89 1014.8
20260507044008 42 289 0.0 0.0 0.00 0.43 0.00 88 1014.7
20260507043508 42 289 0.0 0.0 0.00 0.45 0.00 88 1014.6
20260507043012 42 289 0.0 0.0 0.00 0.47 0.00 88 1014.6
20260507042504 42 289 0.0 0.0 0.00 0.49 0.00 88 1014.6
20260507042005 42 289 0.0 0.0 0.00 0.54 0.00 87 1014.7
20260507041514 42 289 0.0 0.0 0.00 0.56 0.00 87 1014.7
20260507041007 43 289 0.0 0.0 0.00 0.57 0.00 87 1014.7
20260507040506 43 289 0.0 0.0 0.00 0.57 0.00 87 1014.6
20260507040022 43 289 0.0 2.0 0.00 0.57 0.00 87 1014.6
20260507035507 43 289 0.0 2.0 0.00 0.57 0.57 87 1014.6
20260507035008 43 289 0.0 2.0 0.00 0.57 0.57 87 1014.6
20260507034522 43 289 0.0 2.0 0.00 0.57 0.57 87 1014.6
20260507034009 43 289 0.0 2.0 0.00 0.57 0.57 87 1014.6
20260507033508 43 289 0.0 2.0 0.00 0.57 0.57 87 1014.7
20260507033028 44 289 0.0 2.0 0.00 0.57 0.57 87 1014.7
20260507032509 44 289 0.0 2.0 0.00 0.57 0.57 87 1014.7
20260507032015 44 289 0.0 2.0 0.00 0.57 0.57 87 1014.8
20260507031512 44 289 0.0 2.0 0.00 0.58 0.57 87 1014.8
20260507031004 44 289 0.0 2.0 0.00 0.58 0.57 86 1014.8
20260507030506 44 289 0.0 2.0 0.00 0.58 0.57 86 1014.8
20260507030019 44 289 0.0 2.0 0.00 0.58 0.57 86 1014.8
20260507025506 44 289 0.0 2.0 0.00 0.58 0.57 86 1014.8
20260507025006 44 289 0.0 2.0 0.00 0.58 0.57 86 1014.8
20260507024525 45 289 0.0 2.0 0.00 0.60 0.57 85 1014.8
20260507024010 45 289 0.0 2.0 0.00 0.61 0.57 86 1014.8
20260507023507 45 289 0.0 2.0 0.00 0.62 0.57 85 1014.7
20260507023028 45 289 0.0 2.0 0.00 0.63 0.57 85 1014.7
20260507022509 45 289 0.0 2.0 0.00 0.63 0.57 85 1014.8
20260507022010 46 289 0.0 2.0 0.00 0.64 0.57 85 1014.7
20260507021528 46 289 0.0 2.0 0.00 0.65 0.57 85 1014.7
20260507021009 46 289 0.0 2.0 0.00 0.66 0.57 85 1014.6
20260507020512 46 289 0.0 0.0 0.00 0.68 0.57 84 1014.6
20260507020018 46 289 0.0 0.0 0.00 0.70 0.57 83 1014.6
20260507015507 46 289 0.0 1.0 0.00 0.71 0.57 83 1014.5
20260507015007 46 289 0.0 2.0 0.00 0.71 0.57 82 1014.5
20260507014531 47 289 0.0 2.0 0.00 0.71 0.57 82 1014.4
20260507014006 47 10 0.0 2.0 0.00 0.71 0.57 82 1014.2
20260507013507 47 10 0.0 1.0 0.00 0.71 0.57 81 1014.2
20260507013024 48 10 0.0 2.0 0.00 0.72 0.57 80 1014.2
20260507012507 48 10 0.0 2.0 0.00 0.73 0.57 80 1014.0
20260507012010 48 10 0.0 2.0 0.00 0.74 0.57 79 1013.9
20260507011529 49 10 0.0 2.0 0.00 0.76 0.57 78 1014.0
20260507011010 49 10 0.0 2.0 0.00 0.78 0.57 78 1014.0
20260507010506 50 10 0.0 2.0 0.00 0.80 0.57 77 1014.2
20260507010033 50 10 0.0 2.0 0.00 0.82 0.57 74 1014.0
20260507005511 50 10 0.0 0.0 0.00 0.83 0.57 72 1014.1
20260507005008 51 10 0.0 0.0 0.00 0.83 0.57 70 1013.9
20260507004521 51 10 0.0 0.0 0.00 0.83 0.57 71 1014.0
20260507004010 52 10 0.0 0.0 0.00 0.84 0.57 69 1013.9
20260507003507 52 10 0.0 2.0 0.00 0.84 0.57 69 1013.8
20260507003023 53 10 0.0 2.0 0.00 0.85 0.57 65 1013.8
20260507002512 53 315 0.0 2.0 0.00 0.85 0.57 65 1013.8
20260507002009 54 315 0.0 2.0 0.00 0.86 0.57 64 1013.7
20260507001529 55 315 0.0 2.0 0.00 0.86 0.57 63 1013.7
20260507001012 55 315 0.0 2.0 0.00 0.86 0.57 59 1013.6
20260507000508 55 315 0.0 2.0 0.00 0.87 0.57 59 1013.6
20260507000036 55 321 1.0 3.0 0.00 0.87 0.57 58 1013.5
20260506235509 55 57 0.0 3.0 0.00 0.87 0.57 58 1013.3
20260506235007 55 328 0.0 2.0 0.00 0.87 0.57 59 1013.5
20260506234528 55 317 1.0 4.0 0.00 0.87 0.57 57 1013.4
20260506234009 55 341 2.0 4.0 0.00 0.87 0.57 57 1013.5
20260506233507 55 320 2.0 5.0 0.00 0.87 0.57 57 1013.4
20260506233021 55 352 1.0 5.0 0.00 0.87 0.57 56 1013.4
20260506232506 56 302 2.0 6.0 0.00 0.87 0.57 56 1013.3
20260506232002 56 321 2.0 6.0 0.00 0.87 0.57 56 1013.3
20260506231504 56 294 2.0 6.0 0.00 0.87 0.57 55 1013.3
20260506231003 56 276 2.0 6.0 0.00 0.87 0.57 55 1013.3
20260506230504 56 46 3.0 8.0 0.00 0.87 0.57 55 1013.3
20260506230011 56 345 3.0 8.0 0.00 0.87 0.57 56 1013.4
20260506225504 56 49 1.0 8.0 0.00 0.87 0.57 55 1013.4
20260506225006 56 304 2.0 8.0 0.00 0.87 0.57 54 1013.4
20260506224517 56 340 2.0 8.0 0.00 0.87 0.57 56 1013.4
20260506224006 56 325 1.0 4.0 0.00 0.87 0.57 55 1013.5
20260506223507 56 303 2.0 5.0 0.00 0.87 0.57 55 1013.6
20260506223018 56 26 1.0 6.0 0.00 0.87 0.57 54 1013.5
20260506222506 56 314 2.0 6.0 0.00 0.88 0.57 54 1013.5
20260506222007 57 335 2.0 4.0 0.00 0.88 0.57 55 1013.6
20260506221524 57 9 2.0 4.0 0.00 0.88 0.57 55 1013.6
20260506221009 56 15 2.0 4.0 0.00 0.88 0.57 54 1013.6
20260506220507 56 5 2.0 6.0 0.00 0.88 0.57 54 1013.7
20260506220019 56 303 3.0 6.0 0.00 0.88 0.57 54 1013.6
20260506215502 56 278 3.0 6.0 0.00 0.89 0.57 54 1013.6
20260506215003 56 316 2.0 4.0 0.00 0.89 0.57 56 1013.6
20260506214513 56 330 2.0 5.0 0.00 0.89 0.57 57 1013.6
20260506214004 56 319 2.0 10.0 0.00 0.90 0.57 55 1013.6
20260506213505 56 25 4.0 9.0 0.00 0.90 0.57 55 1013.5
20260506213018 56 305 5.0 9.0 0.00 0.90 0.57 54 1013.5
20260506212508 57 344 4.0 10.0 0.00 0.90 0.57 53 1013.4
20260506212010 57 350 5.0 10.0 0.00 0.90 0.57 54 1013.3
20260506211523 57 320 3.0 7.0 0.00 0.91 0.57 57 1013.1
20260506211010 57 311 3.0 7.0 0.00 0.91 0.57 57 1013.2
20260506210506 57 350 2.0 6.0 0.00 0.92 0.57 55 1013.1
20260506210030 57 325 3.0 6.0 0.00 0.92 0.57 54 1013.2
20260506205503 57 24 2.0 5.0 0.00 0.92 0.57 56 1013.1
20260506205003 57 278 3.0 8.0 0.00 0.93 0.57 53 1013.1
20260506204515 57 352 4.0 8.0 0.00 0.93 0.57 54 1013.1
20260506204006 57 289 2.0 7.0 0.00 0.94 0.57 55 1013.2
20260506203513 57 318 2.0 7.0 0.00 0.94 0.57 58 1013.2
20260506203019 57 350 2.0 5.0 0.00 0.94 0.57 54 1013.2
20260506202507 57 21 2.0 5.0 0.00 0.94 0.57 54 1013.2
20260506202007 57 13 3.0 6.0 0.00 0.95 0.57 54 1013.2
20260506201522 57 352 3.0 9.0 0.00 0.96 0.57 53 1013.2
20260506201008 57 305 4.0 9.0 0.00 0.97 0.57 55 1013.3
20260506200510 57 287 2.0 7.0 0.00 1.00 0.57 54 1013.3
20260506200024 57 318 3.0 9.0 0.00 1.04 0.57 54 1013.3
20260506195510 57 306 4.0 8.0 0.00 1.12 0.57 54 1013.2
20260506195006 57 346 3.0 9.0 0.00 1.12 0.57 53 1013.2
20260506194516 57 287 3.0 10.0 0.00 1.12 0.57 54 1013.1
20260506194003 57 310 7.0 10.0 0.00 1.12 0.57 52 1013.2
20260506193503 58 293 5.0 10.0 0.00 1.12 0.57 51 1013.0
20260506193016 58 10 4.0 10.0 0.00 1.12 0.57 53 1012.9
20260506192511 58 331 3.0 9.0 0.00 1.12 0.57 55 1012.8
20260506192010 58 285 3.0 14.0 0.00 1.12 0.57 56 1012.8
20260506191522 58 277 5.0 14.0 0.00 1.12 0.57 54 1012.9
20260506191007 58 298 7.0 14.0 0.00 1.12 0.57 55 1012.9
20260506190508 59 308 5.0 14.0 0.00 1.12 0.57 54 1012.9
20260506190025 59 360 5.0 14.0 0.00 1.12 0.57 54 1013.0
20260506185510 59 27 4.0 10.0 0.00 1.12 0.57 56 1012.9
20260506185008 59 304 4.0 10.0 0.00 1.12 0.57 55 1012.8
20260506184527 59 288 4.0 10.0 0.00 1.12 0.57 52 1012.7
20260506184008 59 288 4.0 10.0 0.00 1.12 0.57 55 1012.6
20260506183508 59 294 4.0 8.0 0.00 1.12 0.57 58 1012.7
20260506183013 58 5 2.0 9.0 0.00 1.12 0.57 57 1012.8
20260506182506 58 327 4.0 9.0 0.00 1.12 0.57 58 1012.8
20260506182008 59 334 4.0 9.0 0.00 1.12 0.57 58 1012.8
20260506181518 59 306 5.0 9.0 0.00 1.12 0.57 54 1012.9
20260506181012 59 221 1.0 9.0 0.00 1.12 0.57 54 1012.8
20260506180510 59 27 4.0 7.0 0.00 1.12 0.57 53 1012.7
20260506180023 58 352 3.0 12.0 0.00 1.12 0.57 57 1012.9
20260506175510 58 27 5.0 12.0 0.00 1.12 0.57 55 1013.0
20260506175008 58 227 2.0 9.0 0.00 1.12 0.57 56 1013.2
20260506174528 58 344 2.0 9.0 0.00 1.12 0.57 56 1013.2
20260506174007 58 40 3.0 9.0 0.00 1.12 0.57 56 1013.1
20260506173509 58 49 3.0 14.0 0.00 1.12 0.57 54 1013.2
20260506173029 58 5 4.0 14.0 0.00 1.12 0.57 55 1013.2
20260506172511 58 334 2.0 11.0 0.00 1.12 0.57 51 1013.2
20260506172006 58 90 4.0 11.0 0.00 1.12 0.57 55 1013.2
20260506171521 57 325 4.0 11.0 0.00 1.12 0.57 55 1013.2
20260506171006 57 54 3.0 11.0 0.00 1.12 0.57 52 1013.2
20260506170508 57 9 5.0 9.0 0.00 1.12 0.57 54 1013.3
20260506170022 56 350 2.0 14.0 0.00 1.12 0.57 56 1013.3
20260506165507 56 22 3.0 14.0 0.00 1.12 0.57 54 1013.3
20260506165009 56 339 4.0 9.0 0.00 1.12 0.57 55 1013.2
20260506164524 56 334 2.0 6.0 0.00 1.12 0.57 56 1013.2
20260506164011 56 275 1.0 6.0 0.00 1.12 0.57 54 1013.3
20260506163509 56 55 1.0 8.0 0.00 1.12 0.57 59 1013.3
20260506163049 56 5 3.0 8.0 0.00 1.12 0.57 57 1013.2
20260506162512 55 32 2.0 10.0 0.00 1.12 0.57 57 1013.3
20260506162011 55 67 4.0 12.0 0.00 1.12 0.57 59 1013.2
20260506161527 56 45 4.0 12.0 0.00 1.12 0.57 59 1013.1
20260506161005 56 17 4.0 8.0 0.00 1.12 0.57 60 1013.2
20260506160510 56 317 2.0 7.0 0.00 1.12 0.57 60 1013.1
20260506160022 55 5 1.0 7.0 0.00 1.12 0.57 60 1013.1
20260506155506 55 40 3.0 8.0 0.00 1.12 0.57 64 1013.0
20260506155010 55 339 3.0 9.0 0.00 1.12 0.57 63 1013.0
20260506154528 54 13 4.0 9.0 0.00 1.12 0.57 61 1013.1
20260506154010 54 113 2.0 8.0 0.00 1.12 0.57 61 1013.3
20260506153509 54 32 3.0 10.0 0.00 1.12 0.57 62 1013.3
20260506153027 54 348 4.0 10.0 0.00 1.12 0.57 60 1013.3
20260506152508 53 42 2.0 6.0 0.00 1.12 0.57 61 1013.2
20260506152010 53 319 2.0 7.0 0.00 1.12 0.57 64 1013.1
20260506151527 53 24 3.0 9.0 0.00 1.12 0.57 64 1012.8
20260506151010 53 36 5.0 9.0 0.00 1.12 0.57 60 1012.8
20260506150510 53 312 5.0 9.0 0.00 1.12 0.57 63 1012.7
20260506150027 53 12 3.0 8.0 0.00 1.12 0.57 63 1012.5
20260506145510 53 82 2.0 10.0 0.00 1.12 0.57 68 1012.4
20260506145007 52 112 1.0 10.0 0.00 1.12 0.57 70 1012.3
20260506144525 52 24 5.0 10.0 0.00 1.12 0.57 69 1012.2
20260506144011 51 290 4.0 11.0 0.00 1.12 0.57 72 1012.2
20260506143506 51 61 3.0 11.0 0.00 1.12 0.57 71 1012.0
20260506143010 51 62 3.0 9.0 0.00 1.12 0.57 74 1012.1
20260506142502 50 348 2.0 9.0 0.00 1.12 0.57 77 1012.2
20260506142003 50 84 1.0 8.0 0.00 1.12 0.57 77 1012.1
20260506141507 50 327 4.0 8.0 0.00 1.12 0.57 76 1012.1
20260506141002 49 41 4.0 8.0 0.00 1.12 0.57 77 1012.1
20260506140504 49 5 4.0 9.0 0.00 1.12 0.57 76 1012.1
20260506140010 49 48 4.0 9.0 0.00 1.12 0.57 78 1011.8
20260506135501 48 351 2.0 8.0 0.00 1.12 0.57 81 1011.9
20260506135005 48 352 2.0 8.0 0.00 1.12 0.57 82 1012.0
20260506134504 48 323 3.0 8.0 0.00 1.12 0.57 81 1012.0
20260506134003 48 300 3.0 8.0 0.00 1.12 0.57 80 1012.0
20260506133502 48 316 3.0 6.0 0.00 1.12 0.57 81 1011.9
20260506133005 48 319 3.0 7.0 0.00 1.12 0.57 81 1011.8
20260506132503 47 325 3.0 7.0 0.00 1.12 0.57 82 1011.6
20260506132003 47 11 3.0 5.0 0.00 1.12 0.57 82 1011.6
20260506131514 47 317 2.0 5.0 0.00 1.12 0.57 81 1011.6
20260506131003 47 36 1.0 5.0 0.00 1.12 0.57 81 1011.7
20260506130504 47 360 2.0 5.0 0.00 1.12 0.57 81 1011.6
20260506130009 47 320 2.0 8.0 0.00 1.12 0.57 81 1011.5
20260506125503 47 325 3.0 8.0 0.00 1.12 0.57 81 1011.4
20260506125003 46 9 3.0 8.0 0.00 1.12 0.57 82 1011.3
20260506124504 46 34 2.0 8.0 0.00 1.12 0.57 82 1011.3
20260506124003 46 360 2.0 7.0 0.00 1.12 0.57 84 1011.3
20260506123504 46 302 2.0 5.0 0.00 1.12 0.57 84 1011.4
20260506123003 46 323 2.0 4.0 0.00 1.12 0.57 84 1011.4
20260506122502 45 303 2.0 6.0 0.00 1.12 0.57 85 1011.3
20260506122003 45 321 1.0 7.0 0.00 1.12 0.57 85 1011.1
20260506121507 45 47 3.0 7.0 0.00 1.12 0.57 85 1011.0
20260506121003 45 316 1.0 8.0 0.00 1.12 0.57 86 1011.0
20260506120507 45 280 3.0 8.0 0.00 1.12 0.57 87 1011.0
20260506120014 45 315 2.0 5.0 0.00 1.12 0.57 87 1010.9
20260506115506 45 313 2.0 4.0 0.00 1.12 0.57 87 1010.7
20260506115003 45 352 0.0 4.0 0.00 1.13 0.57 87 1010.5
20260506114513 45 327 2.0 4.0 0.00 1.13 0.57 87 1010.2
20260506114004 45 360 1.0 4.0 0.00 1.13 0.57 88 1010.2
20260506113503 45 323 1.0 3.0 0.00 1.13 0.57 88 1010.2
20260506113004 45 330 1.0 5.0 0.00 1.13 0.57 88 1010.1
20260506112503 45 30 2.0 5.0 0.00 1.13 0.57 88 1010.1
20260506112003 45 313 1.0 4.0 0.00 1.13 0.57 88 1010.1
20260506111507 45 309 1.0 4.0 0.00 1.14 0.57 88 1010.1
20260506111003 45 324 1.0 5.0 0.00 1.14 0.57 89 1010.3
20260506110507 45 281 2.0 5.0 0.00 1.14 0.57 88 1010.1
20260506110013 45 298 1.0 5.0 0.00 1.14 0.57 88 1009.7
20260506105503 45 352 2.0 4.0 0.00 1.14 0.57 89 1009.3
20260506105008 45 22 1.0 4.0 0.01 1.14 0.57 89 1009.2
20260506104516 45 333 3.0 4.0 0.01 1.14 0.57 88 1009.5
20260506104003 45 338 1.0 3.0 0.01 1.15 0.57 88 1009.9
20260506103504 45 311 1.0 4.0 0.01 1.15 0.57 89 1009.9
20260506103024 45 304 2.0 5.0 0.01 1.15 0.57 89 1009.8
20260506102504 45 302 2.0 5.0 0.01 1.16 0.57 89 1009.5
20260506102004 45 298 2.0 4.0 0.01 1.16 0.57 89 1009.2
20260506101503 45 352 0.0 5.0 0.01 1.16 0.57 88 1008.9
20260506101003 45 334 1.0 5.0 0.01 1.16 0.57 88 1008.8
20260506100504 45 331 3.0 5.0 0.01 1.16 0.57 88 1008.8
20260506100013 45 331 2.0 4.0 0.01 1.17 0.57 88 1008.9
20260506095503 45 36 0.0 3.0 0.01 1.17 0.57 88 1008.8
20260506095004 45 24 1.0 3.0 0.00 1.16 0.56 88 1008.8
20260506094514 45 327 1.0 3.0 0.00 1.16 0.56 88 1008.9
20260506094007 45 304 0.0 3.0 0.00 1.16 0.56 88 1009.0
20260506093507 45 304 1.0 3.0 0.00 1.16 0.56 88 1008.9
20260506093024 45 344 0.0 4.0 0.00 1.16 0.56 88 1008.6
20260506092506 45 12 1.0 6.0 0.00 1.16 0.56 88 1008.5
20260506092006 45 45 1.0 6.0 0.01 1.16 0.56 88 1008.2
20260506091523 45 348 1.0 6.0 0.01 1.16 0.56 88 1008.4
20260506091006 45 9 2.0 6.0 0.01 1.16 0.56 88 1008.1
20260506090505 45 55 0.0 8.0 0.01 1.16 0.56 88 1008.1
20260506090009 45 352 2.0 8.0 0.01 1.16 0.56 88 1008.3
20260506085502 45 60 3.0 8.0 0.02 1.16 0.56 88 1008.5
20260506085002 45 311 2.0 8.0 0.02 1.16 0.56 88 1008.5
20260506084515 45 326 3.0 8.0 0.03 1.16 0.56 88 1008.6
20260506084005 45 360 2.0 9.0 0.04 1.16 0.56 88 1008.5
20260506083508 45 316 4.0 12.0 0.04 1.16 0.56 88 1008.2
20260506083019 45 34 2.0 12.0 0.05 1.16 0.56 88 1008.2
20260506082507 45 344 3.0 9.0 0.05 1.16 0.56 89 1008.1
20260506082007 45 320 3.0 8.0 0.05 1.16 0.55 88 1008.1
20260506081522 45 5 2.0 10.0 0.06 1.16 0.55 88 1008.2
20260506081008 45 22 4.0 10.0 0.08 1.16 0.55 88 1008.0
20260506080508 45 342 2.0 12.0 0.09 1.16 0.55 88 1007.9
20260506073507 46 35 4.0 11.0 0.09 1.13 0.52 89 1008.2
20260506073018 46 338 3.0 13.0 0.08 1.12 0.51 89 1008.2